Terminal Aerodrome Forecast
Issued by NWS Boise, ID

Home | Current Version | Previous Version | Text Only | Print | Product List | Glossary On
Versions: 1 2 3 4 5 6 7 8 9 10 11 12 13 14 15 16 17 18 19 20 21 22 23 24 25
188
FTUS45 KBOI 300520
TAFBOI
TAF
KBOI 300520Z 3006/3106 30007KT P6SM SCT250
     FM302000 31014G22KT P6SM SCT250
     FM310200 VRB06KT P6SM FEW250=

USA.gov is the U.S. government's official web portal to all federal, state and local government web resources and services.